Location: Roland
(31.1349°N, 85.4372°W)
Time: 04:30:33
(UTC+00:00)

Courier 1B - Pass Details

Date: 25 April 2021
Orbit: 962 x 1209 km, 28.3° (Epoch: 07 May)

Event Time Altitude Azimuth Distance (km) Brightness Sun altitude
Rises 20:03:21 0° 274° (W) 3,719 11.1 52.6°
Reaches altitude 10° 20:06:08 10° 269° (W) 2,741 10.7 52.0°
Maximum altitude 20:12:27 49° 196° (SSW) 1,219 9.1 50.8°
Drops below altitude 10° 20:18:38 10° 123° (ESE) 2,683 9.7 49.5°
Sets 20:21:21 0° 117° (ESE) 3,633 10.2 48.9°
